GW4486 Weather Reports


time (UTC)temp
F
wind
direction
speed
knots
gust
knots
rain 1hr
in
rain 24hr
in
rain mn
in
humidity
%
barometer
mb
20260507183101 68 284 3.5 11.3 0.00 0.00 0.00 72 1015.3
20260507181556 67 310 5.2 11.3 0.00 0.00 0.00 73 1015.3
20260507180054 66 300 1.7 8.7 0.00 0.00 0.00 73 1015.4
20260507174554 67 244 3.5 7.0 0.00 0.00 0.00 71 1015.5
20260507173059 66 24 5.2 8.7 0.00 0.00 0.00 73 1015.6
20260507171553 65 0 2.6 7.0 0.00 0.00 0.00 73 1015.6
20260507170055 65 42 2.6 7.0 0.00 0.00 0.00 76 1015.8
20260507164550 63 276 4.3 7.8 0.00 0.00 0.00 78 1015.9
20260507163050 62 203 0.0 7.0 0.00 0.00 0.00 81 1015.9
20260507161556 62 248 1.7 7.8 0.00 0.00 0.00 81 1016.0
20260507160052 61 205 2.6 6.1 0.00 0.00 0.00 81 1016.1
20260507154559 61 306 0.9 6.1 0.00 0.00 0.00 82 1016.1
20260507153103 60 308 1.7 5.2 0.00 0.00 0.00 84 1015.9
20260507151549 61 304 1.7 5.2 0.00 0.00 0.00 82 1016.0
20260507150105 60 300 0.9 5.2 0.00 0.00 0.00 82 1016.0
20260507144548 61 306 0.0 1.7 0.00 0.00 0.00 82 1015.8
20260507143103 59 53 1.7 4.3 0.00 0.00 0.00 85 1015.8
20260507141551 58 42 1.7 4.3 0.00 0.00 0.00 86 1015.8
20260507140053 56 38 2.6 5.2 0.00 0.00 0.00 88 1015.6
20260507134548 55 59 1.7 4.3 0.00 0.00 0.00 90 1015.6
20260507133052 54 36 2.6 5.2 0.00 0.00 0.00 90 1015.5
20260507131551 54 36 2.6 4.3 0.00 0.00 0.00 91 1015.5
20260507124555 54 36 2.6 3.5 0.00 0.00 0.00 90 1015.2
20260507123043 54 53 0.9 2.6 0.00 0.00 0.00 90 1015.2
20260507121553 54 57 0.9 2.6 0.00 0.00 0.00 90 1015.2
20260507120052 54 51 1.7 3.5 0.00 0.00 0.00 89 1015.2
20260507114546 54 56 1.7 3.5 0.00 0.00 0.00 89 1015.2
20260507113049 54 61 0.9 3.5 0.00 0.00 0.00 89 1015.2
20260507111550 54 41 0.9 2.6 0.00 0.00 0.00 89 1015.2
20260507110059 54 61 0.9 2.6 0.00 0.00 0.00 89 1015.3
20260507104600 54 49 0.9 2.6 0.00 0.00 0.00 89 1015.3
20260507103115 54 51 1.7 4.3 0.00 0.00 0.00 89 1015.4
20260507101547 55 57 1.7 4.3 0.00 0.00 0.00 88 1015.4
20260507100103 55 55 1.7 3.5 0.00 0.00 0.00 88 1015.4
20260507094551 55 46 1.7 5.2 0.00 0.00 0.00 88 1015.6
20260507093050 55 32 2.6 4.3 0.00 0.00 0.00 88 1015.7
20260507091549 56 42 1.7 3.5 0.00 0.00 0.00 87 1015.8
20260507090055 56 40 2.6 4.3 0.00 0.00 0.00 87 1015.9
20260507084603 56 34 1.7 3.5 0.00 0.00 0.00 87 1016.1
20260507083051 57 59 1.7 3.5 0.00 0.00 0.00 87 1016.1
20260507081546 58 0 0.9 2.6 0.00 0.00 0.00 87 1016.3
20260507080054 58 303 0.9 2.6 0.00 0.00 0.00 88 1016.4
20260507074551 58 0 0.9 2.6 0.00 0.00 0.00 88 1016.4
20260507073052 59 0 0.0 2.6 0.00 0.00 0.00 88 1016.4
20260507071557 59 0 0.0 1.7 0.00 0.00 0.00 88 1016.5
20260507070105 59 0 0.0 2.6 0.00 0.00 0.00 88 1016.7
20260507064554 59 0 0.0 1.7 0.00 0.00 0.00 87 1016.7
20260507063048 59 147 0.0 1.7 0.00 0.00 0.00 87 1016.8
20260507061551 59 0 0.9 3.5 0.00 0.00 0.00 85 1016.7
20260507060053 59 178 0.0 1.7 0.00 0.00 0.00 84 1016.7
20260507054609 60 252 0.0 1.7 0.00 0.00 0.00 84 1016.8
20260507053102 60 305 1.7 4.3 0.00 0.00 0.00 83 1016.8
20260507051555 60 302 0.9 3.5 0.00 0.00 0.00 83 1016.8
20260507050056 60 297 1.7 4.3 0.00 0.00 0.00 83 1016.6
20260507044555 60 307 2.6 4.3 0.00 0.00 0.00 82 1016.7
20260507043049 60 311 1.7 6.1 0.00 0.00 0.00 81 1016.5
20260507041559 61 301 4.3 8.7 0.00 0.00 0.00 81 1016.6
20260507040051 61 307 3.5 7.8 0.00 0.00 0.00 81 1016.4
20260507034544 61 295 2.6 7.0 0.00 0.00 0.00 83 1016.3
20260507033043 61 303 3.5 7.0 0.00 0.00 0.00 83 1016.0
20260507031543 62 298 3.5 8.7 0.00 0.00 0.00 82 1015.9
20260507030051 62 319 5.2 8.7 0.00 0.00 0.00 81 1015.8
20260507024552 62 304 6.1 9.6 0.00 0.00 0.00 79 1015.7
20260507023045 63 307 4.3 9.6 0.00 0.00 0.00 77 1015.7
20260507021554 64 281 3.5 9.6 0.00 0.00 0.00 75 1015.5
20260507020105 64 296 5.2 11.3 0.00 0.00 0.00 72 1015.5
20260507014616 64 309 8.7 11.3 0.00 0.00 0.00 72 1015.4
20260507013051 65 306 5.2 12.2 0.00 0.00 0.00 71 1015.3
20260507011554 65 302 5.2 12.2 0.00 0.00 0.00 70 1015.5
20260507010049 66 294 4.3 12.2 0.00 0.00 0.00 70 1015.3
20260507004550 66 319 5.2 11.3 0.00 0.00 0.00 69 1015.3
20260507003050 66 253 5.2 12.2 0.00 0.00 0.00 69 1015.3
20260507001600 66 290 7.0 12.2 0.00 0.00 0.00 69 1015.1
20260507000111 66 306 7.0 13.0 0.00 0.00 0.00 68 1015.1
20260506234605 66 287 7.8 13.9 0.00 0.00 0.00 67 1015.1
20260506233050 67 311 7.8 13.9 0.00 0.00 0.00 67 1015.1
20260506231551 67 294 7.0 13.0 0.00 0.00 0.00 67 1015.1
20260506230101 67 312 4.3 13.9 0.00 0.00 0.00 67 1015.1
20260506224552 67 269 7.0 14.8 0.00 0.00 0.00 69 1015.2
20260506223050 66 302 4.3 11.3 0.00 0.00 0.00 69 1015.4
20260506221556 66 219 8.7 15.6 0.00 0.00 0.00 69 1015.4
20260506220049 66 277 6.1 13.0 0.00 0.00 0.00 69 1015.6
20260506214548 66 281 5.2 13.0 0.00 0.00 0.00 68 1015.7
20260506213055 65 265 8.7 13.9 0.00 0.00 0.00 70 1015.8
20260506211553 66 286 7.0 16.5 0.00 0.00 0.00 69 1016.1
20260506210050 66 251 6.1 13.0 0.00 0.00 0.00 68 1015.9
20260506204556 67 248 5.2 13.9 0.00 0.00 0.00 67 1016.0
20260506203053 66 252 4.3 15.6 0.00 0.00 0.00 67 1016.1
20260506201549 65 239 7.8 14.8 0.00 0.00 0.00 68 1016.2
20260506200050 66 256 6.1 13.9 0.00 0.00 0.00 68 1016.3
20260506194552 65 242 7.8 13.9 0.00 0.00 0.00 68 1016.4
20260506193053 66 250 7.8 15.6 0.00 0.00 0.00 68 1016.6
20260506191558 66 230 7.8 14.8 0.00 0.00 0.00 66 1016.5
20260506190055 66 311 5.2 11.3 0.00 0.00 0.00 67 1016.6
20260506184551 66 291 6.1 10.4 0.00 0.00 0.00 66 1016.6